Location: Sewell
(39.7660°N, 75.1450°W)
Time: 02:58:27
(UTC-04:00)

ISS - Visible Passes

Search period start: 27 September 2016 00:00
Search period end: 07 October 2016 00:00
Orbit: 400 x 410 km, 51.6° (Epoch: 27 September)

Date Brightness Start Highest point End Pass type
(mag) Time Alt. Az. Time Alt. Az. Time Alt. Az.
27 Sep -2.0 19:58:12 10° S 20:00:33 23° SE 20:00:33 23° SE visible
28 Sep -2.1 20:41:50 10° WSW 20:44:05 40° WSW 20:44:05 40° WSW visible
29 Sep -3.4 19:49:46 10° SW 19:52:59 62° SE 19:54:40 25° ENE visible
29 Sep 0.2 21:27:10 10° WNW 21:27:22 11° WNW 21:27:22 11° WNW visible
30 Sep -1.7 20:34:30 10° W 20:37:26 30° NNW 20:37:46 29° NNW visible
01 Oct -2.6 19:42:01 10° WSW 19:45:12 52° NW 19:48:01 13° NE visible
01 Oct 0.2 21:20:28 10° NW 21:20:42 11° NW 21:20:42 11° NW visible
02 Oct -1.0 20:27:31 10° WNW 20:29:53 18° NNW 20:30:48 16° N visible
03 Oct -1.4 19:34:44 10° W 19:37:32 26° NNW 19:40:21 10° NNE visible
04 Oct -0.6 20:20:48 10° NW 20:22:24 13° NNW 20:23:24 12° N visible
05 Oct -0.8 19:27:47 10° WNW 19:29:57 16° NNW 19:32:07 10° NNE visible
06 Oct -0.5 20:14:08 10° NNW 20:14:57 11° N 20:15:43 10° N visible
